Location: Le Domaine
(47.0333°N, 76.5361°W)
Time: 16:00:54
(UTC-05:00)

S-56A Canister/Altair - Pass Details

Date: 28 November 2019
Orbit: 632 x 2500 km, 38.9° (Epoch: 14 December)

Event Time Altitude Azimuth Distance (km) Brightness Sun altitude
Rises 11:15:09 0° 187° (S) 6,159 13.5 21.1°
Reaches altitude 10° 11:21:18 10° 171° (S) 5,128 14.0 21.2°
Maximum altitude 11:29:26 17° 137° (SE) 4,334 12.4 21.4°
Drops below altitude 10° 11:36:47 10° 102° (ESE) 4,589 11.8 21.5°
Sets 11:41:42 0° 85° (E) 5,279 11.8 21.6°
